Location: Putman Mountain Observatory
(30.5430°N, 98.9075°W)
Time: 15:44:26
(UTC-06:00)

Tiangong - Visible Passes

Search period start: 16 January 2026 00:00
Search period end: 26 January 2026 00:00
Orbit: 378 x 394 km, 41.5° (Epoch: 16 January)

Date Brightness Start Highest point End Pass type
(mag) Time Alt. Az. Time Alt. Az. Time Alt. Az.
16 Jan 0.1 05:39:48 21° SSE 05:40:11 22° SE 05:42:43 10° E visible
17 Jan -2.3 06:16:38 40° WSW 06:17:39 79° NNW 06:20:51 10° ENE visible
18 Jan 1.0 05:20:53 15° ENE 05:20:53 15° ENE 05:21:31 10° ENE visible
18 Jan -0.7 06:53:08 12° WNW 06:55:24 24° NNW 06:58:05 10° NE visible
19 Jan -0.6 05:57:08 27° NNE 05:57:08 27° NNE 05:59:01 10° NE visible
20 Jan -0.2 06:33:11 16° NNW 06:33:51 17° NNW 06:36:03 10° NNE visible
21 Jan 0.9 05:36:50 11° NE 05:36:50 11° NE 05:36:58 10° NE visible
22 Jan 0.3 06:12:37 13° N 06:12:37 13° N 06:13:54 10° NNE visible
23 Jan 0.4 06:49:06 10° NNW 06:50:20 12° N 06:51:34 10° NNE visible
24 Jan 0.8 05:51:42 10° NNE 05:51:42 10° NNE 05:51:48 10° NNE visible
25 Jan 0.3 06:27:17 11° NNW 06:28:36 13° N 06:30:12 10° NE visible
